RH
53 52 35 33 25 31 29 26 34 24 26 26 41 56 60 58 60 57 55 53 50 51 49 51 57 58 64 62 61 60 57 59 62 64 62 65 69 70 68 69 67 70 69 68
75 58 34 34 30 30 28 24 23 22 27 25 29 49 60 61 56 53 53 47 46 44 46 49 49 56 58 58 57 53 56 58 58 61 59 62 64 63 64 69 69 70 71 72
80 43 41 54 38 35 37 36 38 36 28 39 51 52 56 57 53 50 48 46 46 46 48 49 54 57 57 56 53 54 56 55 58 60 60 60 60 56 57 64 64 68 69 74
92 56 93 53 32 30 36 32 36 37 40 48 49 60 56 49 49 49 47 47 47 48 48 51 57 55 53 52 54 57 56 56 58 58 57 57 58 55 56 58 59 58 61 65
89 83 60 51 40 39 39 36 38 35 59 63 59 57 65 50 46 47 48 46 48 47 49 51 55 54 52 53 54 56 58 58 59 58 57 60 60 57 56 58 57 56 61 53
94 92 88 50 39 37 33 43 54 51 63 65 54 60 67 55 50 50 48 47 48 50 51 51 53 52 54 56 56 58 59 60 58 56 58 61 60 59 55 54 52 51 64 54
92 90 72 52 42 39 45 69 66 59 65 68 69 75 63 54 52 49 49 51 51 51 53 55 55 51 54 56 61 58 57 58 59 56 56 58 58 54 56 52 54 59 64 54
95 95 89 48 45 52 60 75 69 70 69 82 75 64 57 52 53 53 54 55 54 52 55 56 59 51 56 61 60 56 58 59 58 56 55 58 57 56 56 59 62 66 68 62
82 78 65 67 57 68 69 71 73 73 72 66 62 55 52 55 54 54 53 54 53 51 54 56 56 57 60 61 56 60 62 62 60 58 59 61 64 69 71 68 67 72 71 73
80 77 70 80 75 70 68 71 69 68 61 57 56 53 55 54 56 54 52 58 53 53 55 57 59 57 56 56 57 66 79 88 81 89 83 79 75 75 83 86 82 79 81 86
82 87 82 78 74 74 75 72 67 58 54 54 55 56 55 59 56 53 54 60 58 59 57 61 60 54 54 57 64 66 81 86 86 85 88 86 82 85 88 89 87 89 86 84
82 80 78 74 81 74 70 66 59 59 59 53 52 57 58 59 54 53 60 61 63 58 58 64 59 53 59 64 69 75 74 76 82 86 88 88 85 84 71 75 74 73 71 77
61 70 75 77 72 62 63 62 57 56 55 59 58 58 58 60 59 68 69 69 68 74 70 63 52 59 69 74 74 78 82 79 79 85 87 89 88 89 89 77 72 72 74 73
70 70 76 65 67 60 59 59 60 56 56 58 60 57 58 67 88 94 94 92 89 87 88 84 85 90 92 92 92 90 85 87 86 87 90 89 89 89 88 88 89 86 77 76
68 67 63 63 60 61 59 57 59 61 64 66 60 62 65 76 91 95 96 95 95 96 97 94 92 91 93 96 94 91 81 82 88 88 87 89 87 85 84 83 86 84 80 76
68 64 61 62 61 60 56 55 58 63 63 64 64 66 64 75 85 95 95 94 85 89 98 95 91 91 93 96 94 83 79 85 86 80 82 83 84 83 84 83 83 84 83 86
73 74 67 65 62 60 56 53 54 59 62 62 64 62 62 72 86 97 96 93 94 95 94 91 90 92 93 93 88 71 72 73 89 74 77 78 81 84 84 83 83 83 84 83
58 60 56 59 59 58 57 56 56 57 63 64 78 88 92 92 91 95 93 95 98 98 90 90 90 89 90 89 80 68 69 71 75 80 79 82 83 80 82 81 80 81 81 79
63 63 60 56 55 55 55 56 57 60 81 91 90 92 90 91 92 90 92 91 93 91 83 85 76 83 79 79 71 67 72 79 75 74 80 83 82 80 84 82 82 82 81 82
64 59 58 59 57 57 61 64 77 84 90 91 93 93 94 96 94 94 89 82 74 74 77 75 75 80 81 79 84 63 74 80 74 80 84 84 87 88 86 82 84 84 86 85
66 63 66 68 80 88 88 88 88 91 92 90 88 91 94 96 95 95 92 74 77 86 78 80 68 66 68 72 69 80 83 84 85 86 89 90 89 85 86 88 88 86 87 87
86 87 90 89 89 94 92 90 88 91 90 92 94 95 97 99 99 96 91 77 68 95 80 76 66 82 73 94 73 87 81 81 83 85 85 87 88 88 88 88 89 88 87 87
91 90 91 90 90 92 93 90 90 89 91 93 94 94 91 86 84 89 88 78 73 88 80 82 87 91 93 92 90 90 90 89 88 88 88 89 90 90 89 89 89 88 88 87
92 91 94 93 93 90 91 93 89 88 90 90 91 93 89 93 94 80 74 90 92 95 89 90 96 92 95 90 92 92 92 92 93 93 90 97 92 92 90 92 90 89 88 87
91 92 92 92 87 82 88 90 92 92 92 91 93 91 88 79 86 83 90 90 96 92 87 98 100 98 95 94 95 95 95 94 93 93 92 92 92 92 92 91 92 91 90 88
90 84 83 84 80 77 77 79 81 84 83 91 94 94 94 90 86 85 92 94 91 91 88 90 93 94 95 94 94 94 94 89 92 91 92 91 90 90 91 90 91 91 91 90
89 88 83 83 80 79 80 80 85 86 84 89 89 94 90 94 95 93 96 95 94 93 93 92 92 93 92 94 93 92 92 91 96 91 92 92 91 91 91 92 92 91 89 89
Wind_Speed
8 9 4 5 9 14 16 20 12 16 17 10 14 15 17 14 14 16 14 12 10 8 6 5 4 3 5 6 8 10 10 10 10 11 12 12 13 13 14 14 14 14 14 14
7 15 13 7 10 14 17 15 13 15 17 6 5 7 12 15 17 17 15 13 11 9 7 6 4 4 6 7 8 9 9 10 10 11 12 13 13 14 14 14 14 15 14 15
11 6 5 5 19 9 8 9 8 12 14 7 5 10 14 16 18 17 15 13 11 9 7 6 4 5 6 7 8 8 9 10 11 12 13 13 14 15 15 15 15 15 15 14
1 5 8 7 4 8 15 9 12 3 3 4 2 5 7 11 16 16 14 12 10 8 8 6 5 6 6 7 7 9 9 10 11 12 13 13 14 15 15 14 15 14 15 15
6 8 7 10 7 8 8 9 12 14 7 7 12 10 8 8 12 14 13 11 10 9 7 7 7 7 7 7 8 8 10 10 11 12 13 13 14 15 14 14 14 14 13 17
4 5 10 3 2 4 6 11 10 11 13 16 13 7 7 9 14 14 14 12 11 9 7 8 8 7 6 7 8 9 10 10 11 11 12 12 14 14 13 13 14 12 12 15
7 5 7 4 4 4 9 3 6 10 14 16 7 2 17 15 14 14 13 12 10 9 9 8 6 6 7 6 8 9 9 9 10 11 11 11 12 11 12 13 13 14 13 14
3 5 12 8 5 8 2 3 7 10 11 10 13 16 17 15 15 14 13 10 9 9 8 6 6 6 6 7 8 8 8 9 10 11 10 9 12 11 12 12 13 13 14 13
9 6 1 2 1 2 5 6 7 12 12 17 18 17 16 14 13 11 10 9 8 8 8 7 6 6 6 7 8 8 9 10 10 11 10 10 11 11 9 10 11 11 11 12
2 6 3 3 1 2 3 5 11 13 17 16 18 17 15 13 11 10 9 8 8 8 7 7 6 6 6 7 8 7 8 8 9 9 11 10 8 8 8 8 9 10 11 11
4 2 2 3 3 8 12 14 16 14 14 17 18 16 15 12 11 9 9 8 7 7 6 6 5 6 7 7 7 7 7 8 9 8 9 9 9 8 8 8 11 10 10 11
6 11 5 5 10 14 16 16 16 19 14 12 15 16 14 12 10 10 9 9 8 7 6 6 5 6 6 7 7 7 8 7 7 7 7 7 8 8 11 14 15 16 18 15
4 11 4 14 15 11 16 15 13 15 15 16 12 13 13 12 10 11 10 9 8 7 6 5 5 6 6 7 6 7 6 7 6 7 7 7 7 7 8 9 12 15 18 19
16 17 11 12 9 13 16 14 16 14 12 13 14 12 12 12 10 8 8 8 7 7 6 5 5 5 5 5 5 5 5 6 6 6 6 6 7 7 7 8 9 10 13 16
8 5 11 17 16 15 15 17 16 14 13 12 11 12 12 12 10 9 7 6 6 6 5 3 4 4 4 4 4 5 6 6 6 5 5 6 6 7 7 8 8 9 10 12
11 14 17 19 17 17 17 15 16 13 12 12 12 11 11 11 11 9 7 6 6 5 4 3 3 3 3 3 3 4 5 6 5 5 5 6 6 7 8 8 9 9 9 11
19 11 14 15 17 17 17 13 13 14 14 12 12 12 13 12 10 8 6 4 5 5 4 2 2 2 2 2 4 4 4 5 5 5 5 6 6 7 7 7 8 9 9 10
7 12 16 20 18 16 13 12 13 14 13 13 12 11 10 10 10 9 7 5 4 4 3 2 1 0 2 3 3 4 4 4 5 5 5 6 6 6 7 7 8 9 9 9
12 15 14 15 14 15 14 13 13 12 11 11 12 10 9 7 10 9 7 6 4 5 4 2 2 1 2 3 2 3 4 4 4 4 5 5 6 6 6 7 7 8 9 9
13 13 15 15 13 15 13 10 12 10 9 10 9 9 9 7 9 9 7 6 4 3 5 3 1 1 1 2 2 2 3 4 4 4 4 5 6 6 6 7 7 7 8 9
14 14 14 13 10 8 8 10 11 11 9 10 12 11 10 10 8 8 7 5 5 6 5 4 2 1 1 1 1 1 2 3 3 4 5 5 6 6 7 7 7 7 8 8
10 10 10 11 11 9 7 9 10 10 10 8 6 8 9 8 7 7 2 2 4 5 5 4 3 2 1 1 0 1 2 3 3 3 4 4 5 6 6 7 7 7 8 8
8 9 10 10 11 11 8 7 8 10 10 9 9 10 10 8 8 8 6 7 4 5 4 4 4 4 3 2 2 2 3 4 4 3 4 4 4 4 5 5 6 7 7 8
9 8 7 9 11 10 10 6 7 7 6 7 7 7 8 6 4 3 2 3 4 5 4 3 4 5 4 3 3 3 4 4 4 5 5 5 4 4 4 4 6 7 7 8
8 8 9 10 9 7 10 10 8 7 7 7 6 6 5 4 3 6 4 4 4 5 4 4 6 5 4 3 4 4 4 4 5 5 6 6 5 4 4 4 5 6 7 8
10 8 7 6 6 7 8 8 7 7 7 6 5 5 4 4 3 3 4 4 4 4 4 3 3 3 3 4 4 4 4 4 5 6 6 5 4 4 4 5 6 6 7 8
7 7 6 5 4 6 7 7 8 8 7 8 8 6 6 5 4 4 4 4 4 3 3 3 3 3 3 3 2 2 3 3 4 4 4 3 3 4 4 5 6 7 7 7
Wind_Direction
261 295 290 261 230 201 206 227 203 234 226 233 212 204 205 194 178 164 160 158 167 163 156 122 89 61 59 26 7 357 356 351 344 341 345 344 345 344 344 344 344 340 343 342
269 239 210 196 226 219 221 237 246 249 251 207 217 171 173 185 174 166 163 163 157 145 127 103 74 59 47 16 4 357 354 349 346 345 346 347 346 347 345 344 345 342 342 341
244 189 183 253 235 193 203 214 218 226 245 162 175 203 198 180 171 163 156 152 147 135 125 101 78 63 36 12 1 0 355 352 349 347 348 349 347 348 347 346 343 344 343 344
194 189 225 241 194 227 216 213 204 245 207 173 151 106 134 171 155 145 145 140 132 131 114 98 87 55 29 18 11 4 357 351 350 350 348 349 347 349 347 347 342 343 344 349
178 201 309 269 198 174 168 241 199 220 154 128 123 99 66 120 133 137 133 125 124 116 116 95 66 43 29 22 12 2 357 351 351 349 348 350 350 347 346 344 343 344 346 349
154 203 210 235 202 149 123 258 192 172 165 158 158 163 148 130 118 113 117 123 126 122 104 77 54 41 33 23 10 2 353 348 348 351 350 350 349 347 344 344 342 343 345 350
176 195 278 221 155 171 176 242 156 166 165 167 170 42 133 129 117 117 122 125 122 99 80 69 58 43 38 22 12 354 349 349 352 354 349 351 348 346 343 344 345 347 346 348
169 199 247 162 124 195 151 76 136 142 151 122 117 120 126 127 126 129 129 124 106 94 85 75 62 41 39 25 1 355 355 359 357 356 352 351 348 347 345 348 347 345 349 346
190 202 198 170 92 104 150 143 152 145 140 134 131 133 135 134 136 132 121 110 108 108 102 78 62 46 35 17 2 360 7 4 359 358 352 351 348 346 344 347 348 349 350 347
137 218 162 188 140 118 114 119 138 141 137 140 137 142 139 139 137 126 123 123 120 116 97 79 62 49 30 11 2 5 9 1 357 356 352 351 346 350 345 348 344 354 353 349
249 254 119 214 190 139 110 113 116 128 138 138 136 142 143 140 135 133 130 127 127 117 104 88 71 47 26 14 6 8 7 0 1 356 354 345 351 350 349 358 355 358 358 351
210 177 176 158 140 137 135 137 136 128 124 135 140 140 142 139 139 137 135 134 128 120 113 94 73 44 27 14 13 12 5 2 359 352 352 353 349 345 1 10 7 10 4 7
165 141 69 124 129 140 131 135 134 129 135 131 133 138 140 135 134 139 135 132 126 115 105 92 56 51 28 16 13 17 6 356 354 357 355 353 352 348 341 1 1 9 5 4
124 113 96 141 147 134 128 121 113 111 119 129 134 131 131 131 128 130 132 125 120 120 107 79 66 56 17 10 16 14 2 5 0 356 353 350 351 348 346 354 353 353 359 355
136 77 126 120 118 119 124 127 125 129 132 131 136 137 141 140 143 140 135 133 120 116 106 75 54 34 15 10 12 10 7 4 354 354 358 353 352 355 355 354 356 352 349 358
103 113 130 131 138 141 139 142 138 145 144 143 142 145 140 137 133 137 146 151 140 132 121 80 54 9 346 358 359 13 7 0 352 356 359 1 359 360 0 356 357 355 355 357
121 130 131 143 154 154 160 156 153 152 150 150 147 140 138 140 135 138 141 138 125 133 135 119 29 340 336 22 14 13 1 358 355 1 4 2 360 359 359 356 359 354 354 358
157 156 168 155 152 152 152 148 148 152 156 150 139 135 138 153 156 155 148 144 138 148 154 119 289 338 39 33 23 15 7 358 357 1 355 2 359 359 358 357 358 356 353 356
131 132 135 144 148 147 147 148 152 145 136 137 140 152 154 148 148 147 145 140 150 159 156 113 9 77 47 28 33 20 13 2 359 3 350 351 357 0 358 355 356 357 355 357
112 118 124 127 135 144 141 138 134 129 132 132 123 133 147 150 146 148 161 165 162 138 144 141 184 138 69 55 26 20 9 360 358 358 359 348 352 349 348 346 348 349 351 352
125 129 129 131 120 102 118 133 133 139 145 149 154 160 161 158 159 151 164 180 171 175 170 175 198 147 119 18 313 13 358 348 353 350 346 345 339 346 346 342 340 347 347 348
132 129 127 127 130 123 129 133 133 139 148 142 123 132 136 154 166 191 234 203 153 165 182 195 191 166 184 241 269 297 313 332 332 329 339 336 335 338 342 343 342 342 341 342
119 127 128 134 140 137 124 127 140 148 149 153 154 161 170 168 173 172 194 190 187 175 198 204 186 195 193 227 247 270 284 288 296 302 300 302 307 316 324 329 332 335 337 338
119 120 113 113 120 128 139 150 143 141 139 150 159 162 159 159 169 186 117 140 170 181 209 210 212 218 214 245 252 267 274 284 287 285 282 270 279 288 304 322 325 330 330 332
119 119 128 139 147 148 137 145 131 136 144 157 158 171 187 179 169 182 179 179 182 197 219 207 222 234 239 252 263 274 287 292 292 292 288 282 277 283 299 314 320 326 325 325
143 147 150 152 148 147 146 156 157 161 161 163 169 170 166 164 157 141 172 184 196 204 228 228 230 236 249 253 263 285 302 311 314 313 315 307 306 307 318 324 323 325 323 319
113 127 134 125 142 151 161 167 162 171 178 173 172 175 178 175 182 182 181 188 204 217 230 235 245 256 269 279 299 327 328 337 7 352 2 359 349 337 329 324 321 320 318 319